Weather History for Troy, MI

Change the Weather History Date:

Monday, May 13, 2013

  Actual Average (KDET) Record (KDET)
Temperature  
Mean Temperature 43 °F -  
Max Temperature 53 °F 68 °F 89 °F (1991)
Min Temperature 33 °F 48 °F 33 °F (2013)
Degree Days  
Heating Degree Days 22    
Moisture  
Dew Point 24 °F    
Average Humidity 48    
Maximum Humidity 68    
Minimum Humidity 29    
Precipitation  
Precipitation 0.00 in - - ()
Sea Level Pressure  
Sea Level Pressure 30.14 in    
Wind  
Wind Speed 5 mph (WNW)    
Max Wind Speed 15 mph    
Max Gust Speed 21 mph    
Visibility 10 miles    
Events      
Averages and records for this station are not official NWS values.
T = Trace of Precipitation, MM = Missing Value Source: NWS Daily Summary

Daily Weather History Graph

Daily Weather History Graph

Search for Another Location

Airport:

Trip Planner

Search our weather history database for the weather conditions in past years. The results will help you decide how hot, cold, wet, or windy it might be!

Date:

Astronomy

May. 13, 2013 Rise Set
Actual Time 6:12 AM EDT 8:46 PM EDT
Civil Twilight 5:40 AM EDT 9:18 PM EDT
Nautical Twilight 5:00 AM EDT 9:58 PM EDT
Astronomical Twilight 4:15 AM EDT 10:44 PM EDT
Moon 8:57 AM EDT (5/13) 11:54 PM EDT (5/13)
Length of Visible Light 15h 37m
Length of Day
14h 33m
Waxing Crescent, 12% of the Moon is Illuminated
May 13
Waxing Crescent
May 18
First Quarter
May 25
Full
May 31
Last Quarter
Jun 8
New

Hourly Weather History & Observations

Time (EDT) Temp. Windchill Dew Point Humidity Pressure Visibility Wind Dir Wind Speed Gust Speed Precip Events Conditions
12:15 AM 37.2 °F 34.7 °F 24.8 °F 61% 30.11 in 10.0 mi WNW 3.5 mph - N/A   Clear
12:34 AM 37.0 °F 34.5 °F 24.6 °F 61% 30.11 in 10.0 mi West 3.5 mph - N/A   Clear
12:55 AM 36.5 °F 33.9 °F 24.8 °F 63% 30.11 in 10.0 mi WNW 3.5 mph - N/A   Clear
1:15 AM 36.1 °F 31.4 °F 24.4 °F 63% 30.11 in 10.0 mi WNW 5.8 mph - N/A   Clear
1:34 AM 36.0 °F 32.1 °F 23.9 °F 62% 30.11 in 10.0 mi WNW 4.6 mph - N/A   Clear
1:55 AM 36.0 °F 32.1 °F 23.9 °F 62% 30.11 in 10.0 mi WNW 4.6 mph - N/A   Clear
2:15 AM 36.0 °F 29.6 °F 23.7 °F 61% 30.11 in 10.0 mi WNW 8.1 mph - N/A   Clear
2:34 AM 35.6 °F 30.7 °F 23.7 °F 62% 30.11 in 10.0 mi NW 5.8 mph - N/A   Clear
2:55 AM 34.7 °F 30.6 °F 23.5 °F 64% 30.10 in 10.0 mi NW 4.6 mph - N/A   Clear
3:15 AM 34.7 °F 30.6 °F 23.5 °F 64% 30.10 in 10.0 mi WNW 4.6 mph - N/A   Clear
3:35 AM 34.3 °F 31.4 °F 23.0 °F 63% 30.10 in 10.0 mi WNW 3.5 mph - N/A   Clear
3:55 AM 34.0 °F 28.8 °F 23.0 °F 64% 30.11 in 10.0 mi WNW 5.8 mph - N/A   Clear
4:15 AM 33.8 °F 29.6 °F 23.7 °F 67% 30.11 in 10.0 mi WNW 4.6 mph - N/A   Clear
4:35 AM 33.8 °F 30.8 °F 23.7 °F 67% 30.11 in 10.0 mi WNW 3.5 mph - N/A   Clear
4:55 AM 33.8 °F 30.8 °F 23.4 °F 66% 30.11 in 10.0 mi WNW 3.5 mph - N/A   Clear
5:15 AM 33.8 °F 29.6 °F 23.0 °F 65% 30.11 in 10.0 mi WNW 4.6 mph - N/A   Clear
5:35 AM 33.6 °F 30.6 °F 23.2 °F 66% 30.11 in 10.0 mi WNW 3.5 mph - N/A   Clear
5:54 AM 33.4 °F 30.4 °F 23.5 °F 67% 30.11 in 10.0 mi WNW 3.5 mph - N/A   Clear
6:15 AM 33.8 °F 30.8 °F 23.5 °F 66% 30.11 in 10.0 mi WNW 3.5 mph - N/A   Clear
6:35 AM 33.3 °F 28.9 °F 23.7 °F 68% 30.11 in 10.0 mi NW 4.6 mph - N/A   Clear
6:54 AM 33.8 °F 29.6 °F 23.4 °F 66% 30.12 in 10.0 mi NW 4.6 mph - N/A   Clear
7:15 AM 34.7 °F 28.8 °F 23.7 °F 64% 30.13 in 10.0 mi WNW 6.9 mph - N/A   Clear
7:35 AM 35.6 °F 29.2 °F 23.7 °F 62% 30.13 in 10.0 mi NW 8.1 mph - N/A   Clear
7:54 AM 36.1 °F 29.3 °F 23.5 °F 60% 30.14 in 10.0 mi NW 9.2 mph 16.1 mph N/A   Clear
8:15 AM 37.4 °F 30.3 °F 23.5 °F 57% 30.15 in - NW 10.4 mph - N/A   Unknown
8:35 AM 37.8 °F 31.3 °F 23.5 °F 57% 30.15 in 10.0 mi WNW 9.2 mph - N/A   Clear
8:55 AM 38.7 °F 32.4 °F 23.2 °F 54% 30.15 in 10.0 mi NNW 9.2 mph - N/A   Clear
9:15 AM 40.1 °F 34.7 °F 22.6 °F 50% 30.16 in 10.0 mi NW 8.1 mph - N/A   Clear
9:35 AM 41.0 °F 36.4 °F 22.5 °F 48% 30.17 in 10.0 mi WNW 6.9 mph 16.1 mph N/A   Clear
9:54 AM 41.9 °F 35.0 °F 22.5 °F 46% 30.16 in 10.0 mi NNW 12.7 mph 17.3 mph N/A   Clear
10:15 AM 42.8 °F 38.0 °F 23.2 °F 46% 30.17 in 10.0 mi WNW 8.1 mph 18.4 mph N/A   Clear
10:35 AM 43.5 °F 36.4 °F 22.6 °F 44% 30.18 in 10.0 mi NW 15.0 mph 18.4 mph N/A   Clear
10:55 AM 44.6 °F 38.1 °F 23.4 °F 43% 30.18 in 10.0 mi WNW 13.8 mph 19.6 mph N/A   Clear
11:15 AM 46.0 °F 41.4 °F 24.3 °F 42% 30.18 in 10.0 mi NNW 9.2 mph 16.1 mph N/A   Clear
11:35 AM 45.7 °F 40.6 °F 22.8 °F 41% 30.18 in 10.0 mi West 10.4 mph 20.7 mph N/A   Scattered Clouds
11:55 AM 46.0 °F 40.6 °F 23.2 °F 41% 30.18 in 10.0 mi WNW 11.5 mph 18.4 mph N/A   Scattered Clouds
12:14 PM 46.6 °F - 24.1 °F 41% 30.18 in 10.0 mi North 8.1 mph - N/A   Scattered Clouds
12:35 PM 47.5 °F - 24.3 °F 40% 30.18 in 10.0 mi WNW 11.5 mph 17.3 mph N/A   Mostly Cloudy
12:55 PM 47.7 °F - 23.5 °F 39% 30.18 in 10.0 mi West 5.8 mph - N/A   Mostly Cloudy
1:15 PM 48.2 °F - 24.8 °F 40% 30.18 in 10.0 mi WNW 9.2 mph - N/A   Overcast
1:35 PM 49.1 °F - 24.4 °F 38% 30.18 in 10.0 mi WNW 6.9 mph 18.4 mph N/A   Mostly Cloudy
1:55 PM 49.8 °F - 25.0 °F 38% 30.18 in 10.0 mi West 6.9 mph - N/A   Mostly Cloudy
2:15 PM 49.8 °F - 24.1 °F 37% 30.18 in 10.0 mi NNW 8.1 mph - N/A   Overcast
2:34 PM 49.3 °F - 22.8 °F 35% 30.18 in 10.0 mi West 8.1 mph - N/A   Scattered Clouds
2:55 PM 50.0 °F - 23.9 °F 36% 30.18 in 10.0 mi WNW 3.5 mph 10.4 mph N/A   Mostly Cloudy
3:15 PM 50.9 °F - 24.4 °F 36% 30.18 in 10.0 mi West 5.8 mph 9.2 mph N/A   Mostly Cloudy
3:35 PM 51.6 °F - 22.5 °F 32% 30.18 in 10.0 mi WNW 9.2 mph 16.1 mph N/A   Scattered Clouds
4:35 PM 52.2 °F - 23.7 °F 33% 30.15 in 10.0 mi WNW 11.5 mph - N/A   Mostly Cloudy
4:55 PM 53.2 °F - 22.3 °F 30% 30.15 in 10.0 mi West 8.1 mph - N/A   Scattered Clouds
5:14 PM 52.0 °F - 22.1 °F 31% 30.15 in 10.0 mi WNW 8.1 mph - N/A   Scattered Clouds
5:35 PM 51.3 °F - 22.3 °F 32% 30.14 in 10.0 mi Calm Calm - N/A   Clear
5:54 PM 52.3 °F - 22.5 °F 31% 30.14 in 10.0 mi NW 3.5 mph - N/A   Scattered Clouds
6:15 PM 52.3 °F - 22.1 °F 31% 30.14 in 10.0 mi WSW 8.1 mph - N/A   Scattered Clouds
6:35 PM 52.2 °F - 21.4 °F 30% 30.13 in 10.0 mi Calm Calm - N/A   Clear
6:54 PM 53.1 °F - 21.6 °F 29% 30.14 in 10.0 mi WNW 6.9 mph - N/A   Clear
7:34 PM 52.9 °F - 21.9 °F 30% 30.14 in 10.0 mi WNW 6.9 mph - N/A   Clear
8:15 PM 51.8 °F - 21.4 °F 30% 30.14 in 10.0 mi WNW 3.5 mph - N/A   Clear
8:34 PM 51.1 °F - 22.1 °F 32% 30.14 in 10.0 mi Calm Calm - N/A   Clear
8:55 PM 51.3 °F - 21.9 °F 32% 30.14 in 10.0 mi Calm Calm - N/A   Clear
9:14 PM 50.2 °F - 22.5 °F 34% 30.14 in 10.0 mi Calm Calm - N/A   Clear
9:35 PM 49.3 °F - 23.5 °F 36% 30.14 in 10.0 mi Calm Calm - N/A   Clear
9:55 PM 48.4 °F - 23.7 °F 38% 30.14 in 10.0 mi Calm Calm - N/A   Clear
10:15 PM 48.6 °F - 26.2 °F 42% 30.14 in 10.0 mi Calm Calm - N/A   Clear
10:35 PM 46.8 °F - 27.5 °F 47% 30.14 in 10.0 mi SSE 4.6 mph - N/A   Clear
10:54 PM 46.4 °F 44.3 °F 27.7 °F 48% 30.13 in 10.0 mi SSE 4.6 mph - N/A   Clear
11:15 PM 45.9 °F - 27.9 °F 49% 30.13 in 10.0 mi Calm Calm - N/A   Clear
11:35 PM 45.1 °F - 27.9 °F 51% 30.14 in 10.0 mi Calm Calm - N/A   Clear
11:54 PM 45.5 °F - 28.6 °F 52% 30.14 in 10.0 mi Calm Calm - N/A   Clear